Regional Weather Roundup
Issued by NWS

Home | Current Version | Previous Version | Graphics & Text | Print | Product List | Glossary Off
Versions: 1 2 3 4 5 6 7 8 9 10 11 12 13 14 15 16 17 18 19 20 21 22 23 24 25 26 27 28 29 30 31 32 33 34 35 36 37 38 39 40 41 42 43 44 45 46 47 48 49 50

000
ASUS43 KTOP 292259
RWRKS

WEATHER ROUNDUP FOR KANSAS
NATIONAL WEATHER SERVICE GOODLAND KS
600 PM CDT WED OCT 29 2014

NOTE:  "FAIR" INDICATES FEW OR NO CLOUDS BELOW 12,000 FEET WITH NO
SIGNIFICANT WEATHER AND/OR OBSTRUCTIONS TO VISIBILITY.

KSZ001>006-013>018-027>032-041>047-300000-
NORTHWEST KANSAS

CITY           SKY/WX    TMP DP  RH WIND       PRES   REMARKS
GOODLAND       CLEAR     71  20  14 W5        30.04S
HAYS           CLEAR     70  41  35 SW13      30.02F
HILL CITY      CLEAR     71  40  32 SW9       30.00F
RUSSELL        CLEAR     70  39  32 S13       30.01F
$$

KSZ061>065-074>080-084>089-300000-
SOUTHWEST KANSAS

CITY           SKY/WX    TMP DP  RH WIND       PRES   REMARKS
DODGE CITY     CLEAR     70  38  31 S17       30.05F
ELKHART          N/A     72  37  28 S10         N/A
GARDEN CITY    CLEAR     70  38  31 SW12      30.04F
GREAT BEND     CLEAR     70  37  30 S13       30.04F
LIBERAL        CLEAR     72  39  30 S13       30.08S
$$

KSZ066>073-081>083-090>101-300000-
SOUTHEAST KANSAS

CITY           SKY/WX    TMP DP  RH WIND       PRES   REMARKS
CHANUTE        CLEAR     62  40  44 SE6       30.13F
COFFEYVILLE    CLEAR     66  39  37 SE5       30.12F
HUTCHINSON     CLEAR     69  33  26 S14       30.08F
NEWTON         CLEAR     66  34  30 S10       30.11F
PARSONS        CLEAR     67  37  33 CALM      30.14F
WICHITA INTL   CLEAR     69  29  22 S12       30.09F
WICHITA JABRA  CLEAR     67  32  27 S10       30.09F
WINFIELD       CLEAR     67  35  30 S9        30.12F
$$

KSZ007>012-019>026-033>040-048>060-102>105-300000-
NORTHEAST KANSAS

CITY           SKY/WX    TMP DP  RH WIND       PRES   REMARKS
CONCORDIA      CLEAR     63  37  38 SE8       30.04F
EMPORIA        CLEAR     62  36  37 SE8       30.10F
LAWRENCE       CLEAR     58  36  43 SE6       30.13F
MANHATTAN      CLEAR     64  36  35 S7        30.07F
OLATHE IND     CLEAR     57  37  47 S3        30.14F
OLATHE EXE     CLEAR     58  34  40 SE5       30.13F
SALINA         CLEAR     68  39  34 S8        30.06F
TOPEKA BILLARD CLEAR     61  35  37 SE8       30.12F
TOPEKA FORBES  CLEAR     60  36  40 SE8       30.11F
$$



USA.gov is the U.S. government's official web portal to all federal, state and local government web resources and services.